Regional Weather Roundup
Issued by NWS Jackson, KY

Home | Current Version | Previous Version | Text Only | Print | Product List | Glossary Off
Versions: 1 2 3 4 5 6 7 8 9 10 11 12 13 14 15 16 17 18 19 20 21 22 23 24 25 26 27 28 29 30 31 32 33 34 35 36 37 38 39 40 41 42 43 44 45 46 47 48 49 50

000
ASUS43 KJKL 020210
RWRJKL

EAST KENTUCKY HOURLY WEATHER ROUNDUP
NATIONAL WEATHER SERVICE JACKSON KY
900 PM EST SUN MAR 01 2015

NOTE: "FAIR" INDICATES FEW OR NO CLOUDS BELOW 12,000 FEET WITH
NO SIGNIFICANT WEATHER AND/OR OBSTRUCTIONS TO VISIBILITY.

* THESE REPORTS ARE NOT UNDER NWS QUALITY CONTROL AND MAY NOT
  REPORT WEATHER SUCH AS PRECIPITATION AND FOG.

KYZ079-080-083-085-087-088-110-112-115-119-120-020300
...EASTERN KENTUCKY...

CITY           SKY/WX    TMP DP  RH WIND       PRES   REMARKS
JACKSON        FOG       44  42  93 SW5       30.25F VSB 1/4
LONDON         CLOUDY    45  41  86 S5        30.27F FOG
SOMERSET*      FOG       43  43 100 CALM      30.29F VSB 1/2
MONTICELLO*    CLOUDY    49  48  96 CALM      30.32S
MIDDLESBORO*   FOG       35  35 100 CALM      30.32S VSB 1/2
HAZARD APT*    CLOUDY    46  46 100 SW9       30.26F FOG
BLACK MTN*       N/A     41  41 100 SW5         N/A
PIKEVILLE APT* CLOUDY    45  45 100 S5        30.25F FOG
BIG SANDY*     CLOUDY    45  44  97 SW6       30.25F FOG
MOREHEAD APT*  FOG       39  39 100 NW9       30.28S VSB<1/4 WCI  33
$$

KYZ035-036-041-042-044-050-067-078-099-020300
...CENTRAL KENTUCKY...

CITY           SKY/WX    TMP DP  RH WIND       PRES   REMARKS
MT STERLING*   DRIZZLE   37  37 100 NW6       30.30R WCI  33
FLEMING/MASON* FOG       34  34 100 W7        30.29  VSB 3/4 WCI  28
DANVILLE*      CLOUDY    41  41 100 NW5       30.29R FOG
RICHMOND*      CLOUDY    41  41 100 NW7       30.27S VSB 1/4
LEXINGTON      FOG       36  36 100 NW6       30.29R VSB 1/2 WCI  31
FRANKFORT      CLOUDY    36  35  96 W3        30.28S FOG
$$

KYZ091>093-OHZ055-061-077-WVZ005-015-034-035-042-020300
...SOUTHERN OHIO/WEST VIRGINIA...

CITY           SKY/WX    TMP DP  RH WIND       PRES   REMARKS
COVINGTON      CLOUDY    33  31  92 W9        30.28R FOG     WCI  25
COLUMBUS       CLOUDY    32  32 100 W5        30.24R FOG     WCI  27
DAYTON         CLOUDY    31  28  89 W7        30.27R FOG     WCI  24
WILMINGTON     CLOUDY    32  29  88 W10       30.26R FOG     WCI  24
HUNTINGTON     FOG       39  39 100 CALM      30.24F VSB 1/4
CHARLESTON     LGT RAIN  43  42  97 S8        30.22F FOG
PINEVILLE*     CLOUDY    37  37 100 MISG      30.31S FOG
BECKLEY        FOG       42  40  92 W5        30.23F VSB 1/4
BLUEFIELD      CLOUDY    45  42  89 W15       30.24F
$$

VAZ002-007-008-TNZ017-027-036-066-071-020300
...SOUTHWEST VIRGINIA/EAST TENNESSEE...

CITY           SKY/WX    TMP DP  RH WIND       PRES   REMARKS
WISE*          FOG       41  41 100 W10G17    30.29R VSB<1/4
JONESVILLE*    CLOUDY    37  37 100 CALM      30.35R FOG
ABINGDON*      FOG       44  43  98 CALM      30.30F VSB 1/2
BRISTOL        CLOUDY    44  43  96 CALM      30.31F
KNOXVILLE      CLOUDY    44  43  96 S8        30.32F FOG
OAK RIDGE      CLOUDY    45  43  93 VRB5      30.34R FOG
CROSSVILLE     LGT RAIN  45  43  93 VRB5      30.31S FOG
NASHVILLE      LGT RAIN  49  49 100 S3        30.31S FOG
$$

...KEY TO REMARKS...
VSB - VISIBILITY IN MILES
WCI - WIND CHILL INDEX
HX  - HEAT INDEX

$$


USA.gov is the U.S. government's official web portal to all federal, state and local government web resources and services.